owner,sensor,date,latitude,longitude,air_pressure(mBar),qcFlag 
COMPS,ioos:station:USF.COMPS:C10:1,2017-04-01T00:05:00Z,27.1690,-82.9260,1010.78,1111122 
COMPS,ioos:station:USF.COMPS:C10:1,2017-04-01T00:35:00Z,27.1690,-82.9260,1010.87,1111122 
COMPS,ioos:station:USF.COMPS:C10:1,2017-04-01T01:05:00Z,27.1690,-82.9260,1011.21,1111122 
COMPS,ioos:station:USF.COMPS:C10:1,2017-04-01T01:35:00Z,27.1690,-82.9260,1011.6,1111122 
COMPS,ioos:station:USF.COMPS:C10:1,2017-04-01T02:05:00Z,27.1690,-82.9260,1012.0,1111122 
COMPS,ioos:station:USF.COMPS:C10:1,2017-04-01T02:35:00Z,27.1690,-82.9260,1012.19,1111122 
COMPS,ioos:station:USF.COMPS:C10:1,2017-04-01T03:05:00Z,27.1690,-82.9260,1012.34,1111122 
COMPS,ioos:station:USF.COMPS:C10:1,2017-04-01T03:35:00Z,27.1690,-82.9260,1012.44,1111122 
COMPS,ioos:station:USF.COMPS:C10:1,2017-04-01T04:05:00Z,27.1690,-82.9260,1012.43,1111122 
COMPS,ioos:station:USF.COMPS:C10:1,2017-04-01T04:35:00Z,27.1690,-82.9260,1012.18,1111122 
COMPS,ioos:station:USF.COMPS:C10:1,2017-04-01T05:05:00Z,27.1690,-82.9260,1012.2,1111122 
COMPS,ioos:station:USF.COMPS:C10:1,2017-04-01T05:35:00Z,27.1690,-82.9260,1012.27,1111122 
COMPS,ioos:station:USF.COMPS:C10:1,2017-04-01T06:05:00Z,27.1690,-82.9260,1012.17,1111122 
COMPS,ioos:station:USF.COMPS:C10:1,2017-04-01T06:35:00Z,27.1690,-82.9260,1012.19,1111122 
COMPS,ioos:station:USF.COMPS:C10:1,2017-04-01T07:05:00Z,27.1690,-82.9260,1012.54,1111122 
COMPS,ioos:station:USF.COMPS:C10:1,2017-04-01T07:35:00Z,27.1690,-82.9260,1012.23,1111122 
COMPS,ioos:station:USF.COMPS:C10:1,2017-04-01T08:05:00Z,27.1690,-82.9260,1012.43,1111122 
COMPS,ioos:station:USF.COMPS:C10:1,2017-04-01T08:35:00Z,27.1690,-82.9260,1012.56,1111122 
COMPS,ioos:station:USF.COMPS:C10:1,2017-04-01T12:05:00Z,27.1690,-82.9260,1014.38,1111122 
COMPS,ioos:station:USF.COMPS:C10:1,2017-04-01T12:35:00Z,27.1690,-82.9260,1014.82,1111122 
COMPS,ioos:station:USF.COMPS:C10:1,2017-04-01T13:05:00Z,27.1690,-82.9260,1015.31,1111122 
COMPS,ioos:station:USF.COMPS:C10:1,2017-04-01T13:35:00Z,27.1690,-82.9260,1015.6,1111122 
COMPS,ioos:station:USF.COMPS:C10:1,2017-04-01T14:05:00Z,27.1690,-82.9260,1016.1,1111122 
COMPS,ioos:station:USF.COMPS:C10:1,2017-04-01T14:35:00Z,27.1690,-82.9260,1016.33,1111122 
COMPS,ioos:station:USF.COMPS:C10:1,2017-04-01T16:05:00Z,27.1690,-82.9260,1016.4,1111122 
COMPS,ioos:station:USF.COMPS:C10:1,2017-04-01T16:35:00Z,27.1690,-82.9260,1016.37,1111122 
COMPS,ioos:station:USF.COMPS:C10:1,2017-04-01T18:05:00Z,27.1690,-82.9260,1015.76,1111122 
COMPS,ioos:station:USF.COMPS:C10:1,2017-04-01T18:35:00Z,27.1690,-82.9260,1015.49,1111122 
COMPS,ioos:station:USF.COMPS:C10:1,2017-04-01T19:05:00Z,27.1690,-82.9260,1015.3,1111122 
COMPS,ioos:station:USF.COMPS:C10:1,2017-04-01T19:35:00Z,27.1690,-82.9260,1014.95,1111122 
COMPS,ioos:station:USF.COMPS:C10:1,2017-04-01T20:05:00Z,27.1690,-82.9260,1014.57,1111122 
COMPS,ioos:station:USF.COMPS:C10:1,2017-04-01T20:35:00Z,27.1690,-82.9260,1014.44,1111122 
COMPS,ioos:station:USF.COMPS:C10:1,2017-04-01T21:05:00Z,27.1690,-82.9260,1014.16,1111122 
COMPS,ioos:station:USF.COMPS:C10:1,2017-04-01T21:35:00Z,27.1690,-82.9260,1014.5,1111122 
COMPS,ioos:station:USF.COMPS:C10:1,2017-04-01T22:05:00Z,27.1690,-82.9260,1014.5,1111122 
COMPS,ioos:station:USF.COMPS:C10:1,2017-04-01T22:35:00Z,27.1690,-82.9260,1014.39,1111122 
COMPS,ioos:station:USF.COMPS:C10:1,2017-04-01T23:05:00Z,27.1690,-82.9260,1014.59,1111122 
COMPS,ioos:station:USF.COMPS:C10:1,2017-04-01T23:35:00Z,27.1690,-82.9260,1014.55,1111122 
COMPS,ioos:station:USF.COMPS:C10:1,2017-04-02T00:05:00Z,27.1690,-82.9260,1014.73,1111122 
COMPS,ioos:station:USF.COMPS:C10:1,2017-04-02T00:35:00Z,27.1690,-82.9260,1014.92,1111122 
COMPS,ioos:station:USF.COMPS:C10:1,2017-04-02T01:05:00Z,27.1690,-82.9260,1015.0,1111122 
COMPS,ioos:station:USF.COMPS:C10:1,2017-04-02T01:35:00Z,27.1690,-82.9260,1015.43,1111122 
COMPS,ioos:station:USF.COMPS:C10:1,2017-04-02T02:05:00Z,27.1690,-82.9260,1015.77,1111122 
COMPS,ioos:station:USF.COMPS:C10:1,2017-04-02T02:35:00Z,27.1690,-82.9260,1015.98,1111122 
COMPS,ioos:station:USF.COMPS:C10:1,2017-04-02T03:05:00Z,27.1690,-82.9260,1015.98,1111122 
COMPS,ioos:station:USF.COMPS:C10:1,2017-04-02T03:35:00Z,27.1690,-82.9260,1015.89,1111122 
COMPS,ioos:station:USF.COMPS:C10:1,2017-04-02T04:05:00Z,27.1690,-82.9260,1016.08,1111122 
COMPS,ioos:station:USF.COMPS:C10:1,2017-04-02T04:35:00Z,27.1690,-82.9260,1015.99,1111122 
COMPS,ioos:station:USF.COMPS:C10:1,2017-04-02T05:05:00Z,27.1690,-82.9260,1015.82,1111122 
COMPS,ioos:station:USF.COMPS:C10:1,2017-04-02T05:35:00Z,27.1690,-82.9260,1015.63,1111122 
COMPS,ioos:station:USF.COMPS:C10:1,2017-04-02T06:05:00Z,27.1690,-82.9260,1015.35,1111122 
COMPS,ioos:station:USF.COMPS:C10:1,2017-04-02T06:35:00Z,27.1690,-82.9260,1015.15,1111122 
COMPS,ioos:station:USF.COMPS:C10:1,2017-04-02T07:05:00Z,27.1690,-82.9260,1014.88,1111122 
COMPS,ioos:station:USF.COMPS:C10:1,2017-04-02T07:35:00Z,27.1690,-82.9260,1014.88,1111122 
COMPS,ioos:station:USF.COMPS:C10:1,2017-04-02T10:05:00Z,27.1690,-82.9260,1014.86,1111122 
COMPS,ioos:station:USF.COMPS:C10:1,2017-04-02T10:35:00Z,27.1690,-82.9260,1014.94,1111122 
COMPS,ioos:station:USF.COMPS:C10:1,2017-04-02T11:05:00Z,27.1690,-82.9260,1015.27,1111122 
COMPS,ioos:station:USF.COMPS:C10:1,2017-04-02T11:35:00Z,27.1690,-82.9260,1015.69,1111122 
COMPS,ioos:station:USF.COMPS:C10:1,2017-04-02T12:05:00Z,27.1690,-82.9260,1015.82,1111122 
COMPS,ioos:station:USF.COMPS:C10:1,2017-04-02T12:35:00Z,27.1690,-82.9260,1015.9,1111122 
COMPS,ioos:station:USF.COMPS:C10:1,2017-04-02T13:05:00Z,27.1690,-82.9260,1016.01,1111122 
COMPS,ioos:station:USF.COMPS:C10:1,2017-04-02T13:35:00Z,27.1690,-82.9260,1015.9,1111122 
COMPS,ioos:station:USF.COMPS:C10:1,2017-04-02T14:05:00Z,27.1690,-82.9260,1016.1,1111122 
COMPS,ioos:station:USF.COMPS:C10:1,2017-04-02T14:35:00Z,27.1690,-82.9260,1016.11,1111122 
COMPS,ioos:station:USF.COMPS:C10:1,2017-04-02T15:05:00Z,27.1690,-82.9260,1016.11,1111122 
COMPS,ioos:station:USF.COMPS:C10:1,2017-04-02T15:35:00Z,27.1690,-82.9260,1016.07,1111122 
COMPS,ioos:station:USF.COMPS:C10:1,2017-04-02T16:05:00Z,27.1690,-82.9260,1015.89,1111122 
COMPS,ioos:station:USF.COMPS:C10:1,2017-04-02T16:35:00Z,27.1690,-82.9260,1015.9,1111122 
COMPS,ioos:station:USF.COMPS:C10:1,2017-04-02T17:05:00Z,27.1690,-82.9260,1015.9,1111122 
COMPS,ioos:station:USF.COMPS:C10:1,2017-04-02T17:35:00Z,27.1690,-82.9260,1015.67,1111122 
COMPS,ioos:station:USF.COMPS:C10:1,2017-04-02T18:05:00Z,27.1690,-82.9260,1015.35,1111122 
COMPS,ioos:station:USF.COMPS:C10:1,2017-04-02T18:35:00Z,27.1690,-82.9260,1014.95,1111122 
COMPS,ioos:station:USF.COMPS:C10:1,2017-04-02T19:05:00Z,27.1690,-82.9260,1014.75,1111122 
COMPS,ioos:station:USF.COMPS:C10:1,2017-04-02T19:35:00Z,27.1690,-82.9260,1014.58,1111122 
COMPS,ioos:station:USF.COMPS:C10:1,2017-04-02T20:05:00Z,27.1690,-82.9260,1014.56,1111122 
COMPS,ioos:station:USF.COMPS:C10:1,2017-04-02T20:35:00Z,27.1690,-82.9260,1014.07,1111122 
COMPS,ioos:station:USF.COMPS:C10:1,2017-04-02T21:05:00Z,27.1690,-82.9260,1013.68,1111122 
COMPS,ioos:station:USF.COMPS:C10:1,2017-04-02T21:35:00Z,27.1690,-82.9260,1013.46,1111122 
COMPS,ioos:station:USF.COMPS:C10:1,2017-04-02T22:05:00Z,27.1690,-82.9260,1013.66,1111122 
COMPS,ioos:station:USF.COMPS:C10:1,2017-04-02T22:35:00Z,27.1690,-82.9260,1013.7,1111122 
COMPS,ioos:station:USF.COMPS:C10:1,2017-04-02T23:05:00Z,27.1690,-82.9260,1013.36,1111122 
COMPS,ioos:station:USF.COMPS:C10:1,2017-04-02T23:35:00Z,27.1690,-82.9260,1013.23,1111122 
COMPS,ioos:station:USF.COMPS:C10:1,2017-04-03T00:05:00Z,27.1690,-82.9260,1013.64,1111122 
COMPS,ioos:station:USF.COMPS:C10:1,2017-04-03T00:35:00Z,27.1690,-82.9260,1013.17,1111122 
COMPS,ioos:station:USF.COMPS:C10:1,2017-04-03T01:05:00Z,27.1690,-82.9260,1013.18,1111122 
COMPS,ioos:station:USF.COMPS:C10:1,2017-04-03T01:35:00Z,27.1690,-82.9260,1013.33,1111122 
COMPS,ioos:station:USF.COMPS:C10:1,2017-04-03T02:05:00Z,27.1690,-82.9260,1013.91,1111122 
COMPS,ioos:station:USF.COMPS:C10:1,2017-04-03T02:35:00Z,27.1690,-82.9260,1014.0,1111122 
COMPS,ioos:station:USF.COMPS:C10:1,2017-04-03T03:05:00Z,27.1690,-82.9260,1014.24,1111122 
COMPS,ioos:station:USF.COMPS:C10:1,2017-04-03T03:35:00Z,27.1690,-82.9260,1014.14,1111122 
COMPS,ioos:station:USF.COMPS:C10:1,2017-04-03T04:05:00Z,27.1690,-82.9260,1013.99,1111122 
COMPS,ioos:station:USF.COMPS:C10:1,2017-04-03T04:35:00Z,27.1690,-82.9260,1013.84,1111122 
COMPS,ioos:station:USF.COMPS:C10:1,2017-04-03T05:05:00Z,27.1690,-82.9260,1013.83,1111122 
COMPS,ioos:station:USF.COMPS:C10:1,2017-04-03T05:35:00Z,27.1690,-82.9260,1013.55,1111122 
COMPS,ioos:station:USF.COMPS:C10:1,2017-04-03T06:05:00Z,27.1690,-82.9260,1013.1,1111122 
COMPS,ioos:station:USF.COMPS:C10:1,2017-04-03T06:35:00Z,27.1690,-82.9260,1012.81,1111122 
COMPS,ioos:station:USF.COMPS:C10:1,2017-04-03T07:05:00Z,27.1690,-82.9260,1012.77,1111122 
COMPS,ioos:station:USF.COMPS:C10:1,2017-04-03T07:35:00Z,27.1690,-82.9260,1012.62,1111122 
COMPS,ioos:station:USF.COMPS:C10:1,2017-04-03T08:05:00Z,27.1690,-82.9260,1012.26,1111122 
COMPS,ioos:station:USF.COMPS:C10:1,2017-04-03T08:35:00Z,27.1690,-82.9260,1012.08,1111122 
COMPS,ioos:station:USF.COMPS:C10:1,2017-04-03T09:05:00Z,27.1690,-82.9260,1012.07,1111122 
COMPS,ioos:station:USF.COMPS:C10:1,2017-04-03T09:35:00Z,27.1690,-82.9260,1012.02,1111122 
COMPS,ioos:station:USF.COMPS:C10:1,2017-04-03T10:05:00Z,27.1690,-82.9260,1012.09,1111122 
COMPS,ioos:station:USF.COMPS:C10:1,2017-04-03T10:35:00Z,27.1690,-82.9260,1012.19,1111122 
COMPS,ioos:station:USF.COMPS:C10:1,2017-04-03T11:05:00Z,27.1690,-82.9260,1012.21,1111122 
COMPS,ioos:station:USF.COMPS:C10:1,2017-04-03T11:35:00Z,27.1690,-82.9260,1012.21,1111122 
COMPS,ioos:station:USF.COMPS:C10:1,2017-04-03T12:05:00Z,27.1690,-82.9260,1012.75,1111122 
COMPS,ioos:station:USF.COMPS:C10:1,2017-04-03T12:35:00Z,27.1690,-82.9260,1012.76,1111122 
COMPS,ioos:station:USF.COMPS:C10:1,2017-04-03T13:05:00Z,27.1690,-82.9260,1012.88,1111122 
COMPS,ioos:station:USF.COMPS:C10:1,2017-04-03T13:35:00Z,27.1690,-82.9260,1013.17,1111122 
COMPS,ioos:station:USF.COMPS:C10:1,2017-04-03T14:05:00Z,27.1690,-82.9260,1013.11,1111122 
COMPS,ioos:station:USF.COMPS:C10:1,2017-04-03T14:35:00Z,27.1690,-82.9260,1012.92,1111122 
COMPS,ioos:station:USF.COMPS:C10:1,2017-04-03T15:05:00Z,27.1690,-82.9260,1013.14,1111122 
COMPS,ioos:station:USF.COMPS:C10:1,2017-04-03T15:35:00Z,27.1690,-82.9260,1013.18,1111122 
COMPS,ioos:station:USF.COMPS:C10:1,2017-04-03T16:05:00Z,27.1690,-82.9260,1013.09,1111122 
COMPS,ioos:station:USF.COMPS:C10:1,2017-04-03T16:35:00Z,27.1690,-82.9260,1013.03,1111122 
COMPS,ioos:station:USF.COMPS:C10:1,2017-04-03T17:05:00Z,27.1690,-82.9260,1012.82,1111122 
COMPS,ioos:station:USF.COMPS:C10:1,2017-04-03T17:35:00Z,27.1690,-82.9260,1012.7,1111122 
COMPS,ioos:station:USF.COMPS:C10:1,2017-04-03T18:05:00Z,27.1690,-82.9260,1012.8,1111122 
COMPS,ioos:station:USF.COMPS:C10:1,2017-04-03T18:35:00Z,27.1690,-82.9260,1012.71,1111122 
COMPS,ioos:station:USF.COMPS:C10:1,2017-04-03T19:05:00Z,27.1690,-82.9260,1012.36,1111122 
COMPS,ioos:station:USF.COMPS:C10:1,2017-04-03T19:35:00Z,27.1690,-82.9260,1012.2,1111122 
COMPS,ioos:station:USF.COMPS:C10:1,2017-04-03T20:05:00Z,27.1690,-82.9260,1011.97,1111122 
COMPS,ioos:station:USF.COMPS:C10:1,2017-04-03T20:35:00Z,27.1690,-82.9260,1011.87,1111122 
COMPS,ioos:station:USF.COMPS:C10:1,2017-04-03T21:05:00Z,27.1690,-82.9260,1011.76,1111122 
COMPS,ioos:station:USF.COMPS:C10:1,2017-04-03T21:35:00Z,27.1690,-82.9260,1011.56,1111122 
COMPS,ioos:station:USF.COMPS:C10:1,2017-04-03T22:05:00Z,27.1690,-82.9260,1011.18,1111122 
COMPS,ioos:station:USF.COMPS:C10:1,2017-04-03T22:35:00Z,27.1690,-82.9260,1011.14,1111122 
COMPS,ioos:station:USF.COMPS:C10:1,2017-04-03T23:05:00Z,27.1690,-82.9260,1010.92,1111122 
COMPS,ioos:station:USF.COMPS:C10:1,2017-04-03T23:35:00Z,27.1690,-82.9260,1010.77,1111122 
COMPS,ioos:station:USF.COMPS:C10:1,2017-04-04T00:05:00Z,27.1690,-82.9260,1010.75,1111122 
COMPS,ioos:station:USF.COMPS:C10:1,2017-04-04T00:35:00Z,27.1690,-82.9260,1010.75,1111122 
COMPS,ioos:station:USF.COMPS:C10:1,2017-04-04T01:05:00Z,27.1690,-82.9260,1011.05,1111122 
COMPS,ioos:station:USF.COMPS:C10:1,2017-04-04T01:35:00Z,27.1690,-82.9260,1011.29,1111122 
COMPS,ioos:station:USF.COMPS:C10:1,2017-04-04T02:05:00Z,27.1690,-82.9260,1011.71,1111122 
COMPS,ioos:station:USF.COMPS:C10:1,2017-04-04T02:35:00Z,27.1690,-82.9260,1011.49,1111122 
COMPS,ioos:station:USF.COMPS:C10:1,2017-04-04T03:05:00Z,27.1690,-82.9260,1011.55,1111122 
COMPS,ioos:station:USF.COMPS:C10:1,2017-04-04T03:35:00Z,27.1690,-82.9260,1011.57,1111122 
COMPS,ioos:station:USF.COMPS:C10:1,2017-04-04T04:05:00Z,27.1690,-82.9260,1011.92,1111122 
COMPS,ioos:station:USF.COMPS:C10:1,2017-04-04T04:35:00Z,27.1690,-82.9260,1011.96,1111122 
COMPS,ioos:station:USF.COMPS:C10:1,2017-04-04T05:05:00Z,27.1690,-82.9260,1011.91,1111122 
COMPS,ioos:station:USF.COMPS:C10:1,2017-04-04T05:35:00Z,27.1690,-82.9260,1011.79,1111122 
COMPS,ioos:station:USF.COMPS:C10:1,2017-04-04T06:05:00Z,27.1690,-82.9260,1011.04,1111122 
COMPS,ioos:station:USF.COMPS:C10:1,2017-04-04T06:35:00Z,27.1690,-82.9260,1010.73,1111122 
COMPS,ioos:station:USF.COMPS:C10:1,2017-04-04T07:05:00Z,27.1690,-82.9260,1010.61,1111122 
COMPS,ioos:station:USF.COMPS:C10:1,2017-04-04T07:35:00Z,27.1690,-82.9260,1010.55,1111122 
COMPS,ioos:station:USF.COMPS:C10:1,2017-04-04T08:05:00Z,27.1690,-82.9260,1010.29,1111122 
COMPS,ioos:station:USF.COMPS:C10:1,2017-04-04T08:35:00Z,27.1690,-82.9260,1010.04,1111122 
COMPS,ioos:station:USF.COMPS:C10:1,2017-04-04T09:05:00Z,27.1690,-82.9260,1009.97,1111122 
COMPS,ioos:station:USF.COMPS:C10:1,2017-04-04T09:35:00Z,27.1690,-82.9260,1010.09,1111122 
COMPS,ioos:station:USF.COMPS:C10:1,2017-04-04T10:05:00Z,27.1690,-82.9260,1010.26,1111122 
COMPS,ioos:station:USF.COMPS:C10:1,2017-04-04T10:35:00Z,27.1690,-82.9260,1010.69,1111122 
COMPS,ioos:station:USF.COMPS:C10:1,2017-04-04T11:05:00Z,27.1690,-82.9260,1010.85,1111122 
COMPS,ioos:station:USF.COMPS:C10:1,2017-04-04T11:35:00Z,27.1690,-82.9260,1011.26,1111122 
COMPS,ioos:station:USF.COMPS:C10:1,2017-04-04T12:05:00Z,27.1690,-82.9260,1011.3,1111122 
COMPS,ioos:station:USF.COMPS:C10:1,2017-04-04T12:35:00Z,27.1690,-82.9260,1011.44,1111122 
COMPS,ioos:station:USF.COMPS:C10:1,2017-04-04T13:05:00Z,27.1690,-82.9260,1011.7,1111122 
COMPS,ioos:station:USF.COMPS:C10:1,2017-04-04T13:35:00Z,27.1690,-82.9260,1011.79,1111122 
COMPS,ioos:station:USF.COMPS:C10:1,2017-04-04T14:05:00Z,27.1690,-82.9260,1012.04,1111122 
COMPS,ioos:station:USF.COMPS:C10:1,2017-04-04T14:35:00Z,27.1690,-82.9260,1012.59,1111122 
COMPS,ioos:station:USF.COMPS:C10:1,2017-04-04T15:05:00Z,27.1690,-82.9260,1012.9,1111122 
COMPS,ioos:station:USF.COMPS:C10:1,2017-04-04T15:35:00Z,27.1690,-82.9260,1013.58,1111122 
COMPS,ioos:station:USF.COMPS:C10:1,2017-04-04T16:05:00Z,27.1690,-82.9260,1013.72,1111122 
COMPS,ioos:station:USF.COMPS:C10:1,2017-04-04T16:35:00Z,27.1690,-82.9260,1013.7,1111122 
COMPS,ioos:station:USF.COMPS:C10:1,2017-04-04T17:05:00Z,27.1690,-82.9260,1013.72,1111122 
COMPS,ioos:station:USF.COMPS:C10:1,2017-04-04T17:35:00Z,27.1690,-82.9260,1013.39,1111122 
COMPS,ioos:station:USF.COMPS:C10:1,2017-04-04T18:05:00Z,27.1690,-82.9260,1013.16,1111122 
COMPS,ioos:station:USF.COMPS:C10:1,2017-04-04T18:35:00Z,27.1690,-82.9260,1012.76,1111122 
COMPS,ioos:station:USF.COMPS:C10:1,2017-04-04T19:05:00Z,27.1690,-82.9260,1011.98,1111122 
COMPS,ioos:station:USF.COMPS:C10:1,2017-04-04T19:35:00Z,27.1690,-82.9260,1011.76,1111122 
COMPS,ioos:station:USF.COMPS:C10:1,2017-04-04T20:05:00Z,27.1690,-82.9260,1011.45,1111122 
COMPS,ioos:station:USF.COMPS:C10:1,2017-04-04T20:35:00Z,27.1690,-82.9260,1011.4,1111122 
COMPS,ioos:station:USF.COMPS:C10:1,2017-04-04T21:05:00Z,27.1690,-82.9260,1011.94,1111122 
COMPS,ioos:station:USF.COMPS:C10:1,2017-04-04T21:35:00Z,27.1690,-82.9260,1011.83,1111122 
COMPS,ioos:station:USF.COMPS:C10:1,2017-04-04T22:05:00Z,27.1690,-82.9260,1012.04,1111122 
COMPS,ioos:station:USF.COMPS:C10:1,2017-04-04T22:35:00Z,27.1690,-82.9260,1012.12,1111122 
COMPS,ioos:station:USF.COMPS:C10:1,2017-04-05T15:05:00Z,27.1690,-82.9260,1013.72,1111122 
COMPS,ioos:station:USF.COMPS:C10:1,2017-04-05T15:35:00Z,27.1690,-82.9260,1013.91,1111122 
COMPS,ioos:station:USF.COMPS:C10:1,2017-04-05T16:05:00Z,27.1690,-82.9260,1013.72,1111122 
COMPS,ioos:station:USF.COMPS:C10:1,2017-04-05T16:35:00Z,27.1690,-82.9260,1013.7,1111122 
COMPS,ioos:station:USF.COMPS:C10:1,2017-04-05T17:05:00Z,27.1690,-82.9260,1013.55,1111122 
COMPS,ioos:station:USF.COMPS:C10:1,2017-04-05T17:35:00Z,27.1690,-82.9260,1013.17,1111122 
COMPS,ioos:station:USF.COMPS:C10:1,2017-04-05T18:05:00Z,27.1690,-82.9260,1012.89,1111122 
COMPS,ioos:station:USF.COMPS:C10:1,2017-04-05T18:35:00Z,27.1690,-82.9260,1012.64,1111122 
COMPS,ioos:station:USF.COMPS:C10:1,2017-04-05T19:05:00Z,27.1690,-82.9260,1012.29,1111122 
COMPS,ioos:station:USF.COMPS:C10:1,2017-04-05T19:35:00Z,27.1690,-82.9260,1011.87,1111122 
COMPS,ioos:station:USF.COMPS:C10:1,2017-04-05T20:05:00Z,27.1690,-82.9260,1011.88,1111122 
COMPS,ioos:station:USF.COMPS:C10:1,2017-04-05T20:35:00Z,27.1690,-82.9260,1011.9,1111122 
COMPS,ioos:station:USF.COMPS:C10:1,2017-04-05T21:05:00Z,27.1690,-82.9260,1011.94,1111122 
COMPS,ioos:station:USF.COMPS:C10:1,2017-04-05T21:35:00Z,27.1690,-82.9260,1012.03,1111122 
COMPS,ioos:station:USF.COMPS:C10:1,2017-04-05T22:05:00Z,27.1690,-82.9260,1012.28,1111122 
COMPS,ioos:station:USF.COMPS:C10:1,2017-04-05T22:35:00Z,27.1690,-82.9260,1012.26,1111122 
COMPS,ioos:station:USF.COMPS:C10:1,2017-04-05T23:05:00Z,27.1690,-82.9260,1012.72,1111122 
COMPS,ioos:station:USF.COMPS:C10:1,2017-04-05T23:35:00Z,27.1690,-82.9260,1012.82,1111122 
COMPS,ioos:station:USF.COMPS:C10:1,2017-04-06T00:05:00Z,27.1690,-82.9260,1013.0,1111122 
COMPS,ioos:station:USF.COMPS:C10:1,2017-04-06T00:35:00Z,27.1690,-82.9260,1013.36,1111122 
COMPS,ioos:station:USF.COMPS:C10:1,2017-04-06T01:05:00Z,27.1690,-82.9260,1013.44,1111122 
COMPS,ioos:station:USF.COMPS:C10:1,2017-04-06T01:35:00Z,27.1690,-82.9260,1013.55,1111122 
COMPS,ioos:station:USF.COMPS:C10:1,2017-04-06T02:05:00Z,27.1690,-82.9260,1013.65,1111122 
COMPS,ioos:station:USF.COMPS:C10:1,2017-04-06T02:35:00Z,27.1690,-82.9260,1013.76,1111122 
COMPS,ioos:station:USF.COMPS:C10:1,2017-04-06T03:05:00Z,27.1690,-82.9260,1013.66,1111122 
COMPS,ioos:station:USF.COMPS:C10:1,2017-04-06T03:35:00Z,27.1690,-82.9260,1013.44,1111122 
COMPS,ioos:station:USF.COMPS:C10:1,2017-04-06T04:05:00Z,27.1690,-82.9260,1013.2,1111122 
COMPS,ioos:station:USF.COMPS:C10:1,2017-04-06T04:35:00Z,27.1690,-82.9260,1013.18,1111122 
COMPS,ioos:station:USF.COMPS:C10:1,2017-04-06T05:05:00Z,27.1690,-82.9260,1012.88,1111122 
COMPS,ioos:station:USF.COMPS:C10:1,2017-04-06T05:35:00Z,27.1690,-82.9260,1012.52,1111122 
COMPS,ioos:station:USF.COMPS:C10:1,2017-04-06T06:05:00Z,27.1690,-82.9260,1012.28,1111122 
COMPS,ioos:station:USF.COMPS:C10:1,2017-04-06T06:35:00Z,27.1690,-82.9260,1011.77,1111122 
COMPS,ioos:station:USF.COMPS:C10:1,2017-04-06T07:05:00Z,27.1690,-82.9260,1011.57,1111122 
COMPS,ioos:station:USF.COMPS:C10:1,2017-04-06T07:35:00Z,27.1690,-82.9260,1011.93,1111122 
COMPS,ioos:station:USF.COMPS:C10:1,2017-04-06T08:05:00Z,27.1690,-82.9260,1012.29,1111122 
COMPS,ioos:station:USF.COMPS:C10:1,2017-04-06T08:35:00Z,27.1690,-82.9260,1010.84,1111122 
COMPS,ioos:station:USF.COMPS:C10:1,2017-04-06T09:05:00Z,27.1690,-82.9260,1011.16,1111122 
COMPS,ioos:station:USF.COMPS:C10:1,2017-04-06T09:35:00Z,27.1690,-82.9260,1011.3,1111122 
COMPS,ioos:station:USF.COMPS:C10:1,2017-04-06T10:05:00Z,27.1690,-82.9260,1011.03,1111122 
COMPS,ioos:station:USF.COMPS:C10:1,2017-04-06T10:35:00Z,27.1690,-82.9260,1011.26,1111122 
COMPS,ioos:station:USF.COMPS:C10:1,2017-04-06T11:05:00Z,27.1690,-82.9260,1010.87,1111122 
COMPS,ioos:station:USF.COMPS:C10:1,2017-04-06T11:35:00Z,27.1690,-82.9260,1012.14,1111122 
COMPS,ioos:station:USF.COMPS:C10:1,2017-04-06T12:05:00Z,27.1690,-82.9260,1012.35,1111122 
COMPS,ioos:station:USF.COMPS:C10:1,2017-04-06T12:35:00Z,27.1690,-82.9260,1012.95,1111122 
COMPS,ioos:station:USF.COMPS:C10:1,2017-04-06T14:05:00Z,27.1690,-82.9260,1014.07,1111122 
COMPS,ioos:station:USF.COMPS:C10:1,2017-04-06T14:35:00Z,27.1690,-82.9260,1014.85,1111122 
COMPS,ioos:station:USF.COMPS:C10:1,2017-04-06T16:05:00Z,27.1690,-82.9260,1014.71,1111122 
COMPS,ioos:station:USF.COMPS:C10:1,2017-04-06T16:35:00Z,27.1690,-82.9260,1015.38,1111122 
COMPS,ioos:station:USF.COMPS:C10:1,2017-04-06T17:05:00Z,27.1690,-82.9260,1015.49,1111122 
COMPS,ioos:station:USF.COMPS:C10:1,2017-04-06T17:35:00Z,27.1690,-82.9260,1015.3,1111122 
COMPS,ioos:station:USF.COMPS:C10:1,2017-04-06T18:05:00Z,27.1690,-82.9260,1015.04,1111122 
COMPS,ioos:station:USF.COMPS:C10:1,2017-04-06T18:35:00Z,27.1690,-82.9260,1015.21,1111122 
COMPS,ioos:station:USF.COMPS:C10:1,2017-04-06T20:05:00Z,27.1690,-82.9260,1014.47,1111122 
COMPS,ioos:station:USF.COMPS:C10:1,2017-04-06T20:35:00Z,27.1690,-82.9260,1014.17,1111122 
COMPS,ioos:station:USF.COMPS:C10:1,2017-04-06T21:05:00Z,27.1690,-82.9260,1013.92,1111122 
COMPS,ioos:station:USF.COMPS:C10:1,2017-04-06T21:35:00Z,27.1690,-82.9260,1013.91,1111122 
COMPS,ioos:station:USF.COMPS:C10:1,2017-04-06T22:05:00Z,27.1690,-82.9260,1013.73,1111122 
COMPS,ioos:station:USF.COMPS:C10:1,2017-04-06T22:35:00Z,27.1690,-82.9260,1013.75,1111122 
COMPS,ioos:station:USF.COMPS:C10:1,2017-04-06T23:05:00Z,27.1690,-82.9260,1013.87,1111122 
COMPS,ioos:station:USF.COMPS:C10:1,2017-04-06T23:35:00Z,27.1690,-82.9260,1014.13,1111122 
COMPS,ioos:station:USF.COMPS:C10:1,2017-04-07T00:05:00Z,27.1690,-82.9260,1014.3,1111122 
COMPS,ioos:station:USF.COMPS:C10:1,2017-04-07T00:35:00Z,27.1690,-82.9260,1014.35,1111122 
COMPS,ioos:station:USF.COMPS:C10:1,2017-04-07T01:05:00Z,27.1690,-82.9260,1014.85,1111122 
COMPS,ioos:station:USF.COMPS:C10:1,2017-04-07T01:35:00Z,27.1690,-82.9260,1015.28,1111122 
COMPS,ioos:station:USF.COMPS:C10:1,2017-04-07T02:05:00Z,27.1690,-82.9260,1015.48,1111122 
COMPS,ioos:station:USF.COMPS:C10:1,2017-04-07T02:35:00Z,27.1690,-82.9260,1015.81,1111122 
COMPS,ioos:station:USF.COMPS:C10:1,2017-04-07T03:05:00Z,27.1690,-82.9260,1016.01,1111122 
COMPS,ioos:station:USF.COMPS:C10:1,2017-04-07T03:35:00Z,27.1690,-82.9260,1016.28,1111122 
COMPS,ioos:station:USF.COMPS:C10:1,2017-04-07T04:05:00Z,27.1690,-82.9260,1016.42,1111122 
COMPS,ioos:station:USF.COMPS:C10:1,2017-04-07T04:35:00Z,27.1690,-82.9260,1016.59,1111122 
COMPS,ioos:station:USF.COMPS:C10:1,2017-04-07T05:05:00Z,27.1690,-82.9260,1016.72,1111122 
COMPS,ioos:station:USF.COMPS:C10:1,2017-04-07T05:35:00Z,27.1690,-82.9260,1016.84,1111122 
COMPS,ioos:station:USF.COMPS:C10:1,2017-04-07T06:05:00Z,27.1690,-82.9260,1016.6,1111122 
COMPS,ioos:station:USF.COMPS:C10:1,2017-04-07T06:35:00Z,27.1690,-82.9260,1016.33,1111122 
COMPS,ioos:station:USF.COMPS:C10:1,2017-04-07T08:05:00Z,27.1690,-82.9260,1015.88,1111122 
COMPS,ioos:station:USF.COMPS:C10:1,2017-04-07T08:35:00Z,27.1690,-82.9260,1015.78,1111122 
COMPS,ioos:station:USF.COMPS:C10:1,2017-04-07T09:05:00Z,27.1690,-82.9260,1015.77,1111122 
COMPS,ioos:station:USF.COMPS:C10:1,2017-04-07T09:35:00Z,27.1690,-82.9260,1016.11,1111122 
COMPS,ioos:station:USF.COMPS:C10:1,2017-04-07T10:05:00Z,27.1690,-82.9260,1016.35,1111122 
COMPS,ioos:station:USF.COMPS:C10:1,2017-04-07T10:35:00Z,27.1690,-82.9260,1016.57,1111122 
COMPS,ioos:station:USF.COMPS:C10:1,2017-04-07T12:05:00Z,27.1690,-82.9260,1017.79,1111122 
COMPS,ioos:station:USF.COMPS:C10:1,2017-04-07T12:35:00Z,27.1690,-82.9260,1018.14,1111122 
COMPS,ioos:station:USF.COMPS:C10:1,2017-04-07T13:05:00Z,27.1690,-82.9260,1018.39,1111122 
COMPS,ioos:station:USF.COMPS:C10:1,2017-04-07T13:35:00Z,27.1690,-82.9260,1018.62,1111122 
COMPS,ioos:station:USF.COMPS:C10:1,2017-04-07T14:05:00Z,27.1690,-82.9260,1018.97,1111122 
COMPS,ioos:station:USF.COMPS:C10:1,2017-04-07T14:35:00Z,27.1690,-82.9260,1019.1,1111122 
COMPS,ioos:station:USF.COMPS:C10:1,2017-04-07T17:05:00Z,27.1690,-82.9260,1019.02,1111122 
COMPS,ioos:station:USF.COMPS:C10:1,2017-04-07T17:35:00Z,27.1690,-82.9260,1018.72,1111122 
COMPS,ioos:station:USF.COMPS:C10:1,2017-04-07T18:05:00Z,27.1690,-82.9260,1018.44,1111122 
COMPS,ioos:station:USF.COMPS:C10:1,2017-04-07T18:35:00Z,27.1690,-82.9260,1018.03,1111122 